OpenBCM V1.13 (Linux)

Packet Radio Mailbox

DB0FHN

[JN59NK Nuernberg]

 Login: GUEST





  
LU4FI  > KEPS     08.02.03 01:12l 158 Lines 7531 Bytes #999 (0) @ AMSAT
BID : ORB03037.N
Read: DB0FHN GUEST
Subj: 2Line Orbital Elements 03037.AMSAT
Path: DB0FHN<DB0RGB<DB0MRW<OK0PPL<RZ6HXA<IK1ZNW<IR0NET<LU1FES<LU4FI
Sent: 030207/2254Z @:LU4FI.2134.SF.ARG.SA #:14353 [Roldan,FF97NC] FBB7.00e
From: LU4FI@LU4FI.2134.SF.ARG.SA
To  : KEPS@AMSAT


AO-07
1 07530U 74089B   03036.20437182 -.00000029  00000-0  10000-3 0  1473
2 07530 101.7637  84.1153 0012233 103.3442 256.8994 12.53564198291517
AO-10
1 14129U 83058B   03036.77933919  .00000095  00000-0  10000-3 0  9157
2 14129  25.9013 166.4253 6030072 325.3874   7.1450  2.05865592147771
UO-11
1 14781U 84021B   03037.42510968  .00001431  00000-0  20593-3 0   637
2 14781  98.1150  11.2568 0008143 249.8701 110.1635 14.77955538 14441
RS-10/11
1 18129U 87054A   03035.88026773  .00000029  00000-0  15752-4 0 02029
2 18129 082.9252 156.6789 0010268 268.2163 091.7811 13.72698997782632
FO-20
1 20480U 90013C   03035.90334722 -.00000029  00000-0  28938-5 0  4608
2 20480  99.0443   1.2180 0540880  34.8034 328.7225 12.83329030608761
RS-12/13
1 21089U 91007A   03036.87352593  .00000055  00000-0  42275-4 0  4888
2 21089  82.9217 190.7918 0028735 324.6877  35.2379 13.74402697602042
RS-15
1 23439U 94085A   03035.98978404 -.00000041  00000-0  38971-4 0 06879
2 23439 064.8155 063.4409 0147099 117.8231 243.7689 11.27547572334067
FO-29
1 24278U 96046B   03036.96872375  .00000010  00000-0  48995-4 0  5588
2 24278  98.5339 189.8992 0349898 249.1829 107.1505 13.52870728319605
SO-33
1 25509U 98061B   03036.71314972  .00000705  00000-0  12799-3 0  7723
2 25509  31.4279 225.7753 0357762 190.6789 168.6064 14.27411462223471
AO-40
1 26609U 00072B   03035.10689355 -.00000169  00000-0  10000-3 0 03108
2 26609 008.0513 066.8265 7939440 140.0872 318.9916 01.25596472010406
UO-14
1 20437U 90005B   03036.70519131  .00000134  00000-0  66203-4 0  1585
2 20437  98.2743  80.9319 0009819 240.1182 119.9027 14.31233227680658
AO-16
1 20439U 90005D   03035.74362252  .00000163  00000-0  77035-4 0  8472
2 20439  98.3200  91.6198 0010146 248.9900 111.0192 14.31465874680552
WO-18
1 20441U 90005F   03037.19300052  .00000166  00000-0  78184-4 0    51
2 20441  98.3379  96.0928 0010801 244.5468 115.4598 14.31548322680818
LO-19
1 20442U 90005G   03037.73192742  .00000167  00000-0  78156-4 0  9573
2 20442  98.3480  99.6101 0011060 243.4739 116.5311 14.31711447680940
UO-22
1 21575U 91050B   03037.89696772  .00000301  00000-0  11033-3 0  7197
2 21575  98.1396  30.6075 0007464 161.0683 199.0784 14.39145081606607
KO-23
1 22077U 92052B   03036.19572964 -.00000037  00000-0  10000-3 0  1527
2 22077  66.0797 153.7301 0015405 277.6018  82.3251 12.86407954492586
AO-27
1 22825U 93061C   03036.86846092  .00000138  00000-0  70789-4 0  4793
2 22825  98.2755  67.2112 0007757 301.9633  58.0797 14.28938145488064
IO-26
1 22826U 93061D   03037.60082914  .00000162  00000-0  79882-4 0  3027
2 22826  98.2761  69.0162 0008386 299.5155  60.5186 14.29161106488210
KO-25
1 22828U 93061F   03037.65400554  .00000118  00000-0  62163-4 0  4192
2 22828  98.2733  69.3314 0009257 276.3926  83.6203 14.29503666456425
TO-31
1 25396U 98043C   03035.97011131 -.00000043  00000-0  00000-0 0 08248
2 25396 098.6295 113.3420 0003274 153.1916 206.9434 14.23506414237596
GO-32
1 25397U 98043D   03035.63506632 -.00000043  00000-0 -83465-7 0 01356
2 25397 098.6227 111.9131 0001642 150.2515 209.8757 14.22956023237511
UO-36
1 25693U 99021A   03037.49300089  .00000571  00000-0  10165-3 0  6831
2 25693  64.5578  47.7454 0019128 316.8177  43.1440 14.76373138204473
AO-37
1 26065U 00004E   03037.87228745  .00000180  00000-0  82497-4 0  7271
2 26065 100.2115  90.4754 0037031 321.3532  38.4998 14.35503254158707
SO-41
1 26545U 00057A   03037.50970667  .00001147  00000-0  17086-3 0  4080
2 26545  64.5581  68.9862 0052975 240.7303 118.8474 14.78946714127430
MO-46
1 26548U 00057D   03036.60561965  .00001672  00000-0  22883-3 0  4118
2 26548  64.5570  64.7977 0046210 240.1194 119.5303 14.81223257127443
SO-42
1 26549U 00057E   03037.53712499  .00001128  00000-0  17195-3 0  6851
2 26549  64.5538  72.9544 0057261 241.0172 118.5186 14.77885754127363
NO-44
1 26931U 01043C   03037.90780475  .00000183  00000-0  10465-3 0  3953
2 26931  67.0481 285.6356 0005000 262.1725  97.8808 14.29108660 70682
AO-49
1 27605U 02058A   03037.61768491 -.00003365  00000-0 -51653-3 0   498
2 27605  64.5542 233.5306 0032230 118.9815 241.4424 14.71346691  7058
SO-50
1 27607U 02058C   03036.98788045  .00000908  00000-0  17190-3 0   458
2 27607  64.5527 235.7923 0038188 116.0368 244.4676 14.69867499  6953
NOAA-10
1 16969U 86073A   03037.90947368  .00000155  00000-0  81964-4 0  6534
2 16969  98.7279  32.0439 0013270 119.1041 241.1470 14.27058962852240
NOAA-11
1 19531U 88089A   03037.91134398  .00000203  00000-0  12929-3 0  4911
2 19531  98.9027 119.3320 0011029 233.6283 126.3872 14.14531825741156
NOAA-12
1 21263U 91032A   03037.89878594  .00000295  00000-0  14420-3 0  9608
2 21263  98.6244  27.7241 0013720  56.9584 303.2911 14.25071784609555
MET-3/5
1 21655U 91056A   03037.21487557  .00000051  00000-0  10000-3 0  4975
2 21655  82.5534  47.5907 0012429 227.7415 132.2655 13.16979587551850
MET-2/21
1 22782U 93055A   03036.80638563  .00000101  00000-0  77720-4 0  5102
2 22782  82.5450 225.0168 0022836  25.2925 334.9328 13.83531396476323
OKEAN-4
1 23317U 94066A   03036.20288724  .00001395  00000-0  17677-3 0  1807
2 23317  82.5425 341.3541 0024652  93.6990 266.7046 14.80869992448126
NOAA-14
1 23455U 94089A   03037.93445383  .00000155  00000-0  10779-3 0  5142
2 23455  99.1869  56.1957 0008595 261.6026  98.4171 14.13292765417839
SICH-1
1 23657U 95046A   03037.88873752  .00001446  00000-0  18736-3 0  9834
2 23657  82.5306 120.5660 0026332  71.4722 288.9348 14.79929864400508
NOAA-15
1 25338U 98030A   03037.93632269  .00000189  00000-0  10030-3 0  9977
2 25338  98.5499  60.4009 0010675 356.2922   3.8176 14.24238946246149
RESURS
1 25394U 98043A   03037.40881990  .00000126  00000-0  73893-4 0  4414
2 25394  98.6350 115.5623 0002046 123.3446 236.7930 14.23872739237800
FENGYUN1
1 25730U 99025A   03037.39181246  .00000070  00000-0  61561-4 0  7605
2 25730  98.6348  62.2486 0015075  39.8353 320.3924 14.11732880192914
OKEAN-0
1 25860U 99039A   03036.52140309  .00000652  00000-0  11010-3 0  9952
2 25860  97.8663  84.4786 0002043  95.3344 264.8098 14.72586581191012
NOAA-16
1 26536U 00055A   03037.81815439  .00000282  00000-0  17884-3 0  1988
2 26536  98.9017 346.1891 0009986 343.4959  16.5876 14.11898191122493
NOAA-17
1 27453U 02032A   03037.89593266  .00000255  00000-0  13208-3 0  2957
2 27453  98.7602 109.1685 0012437  33.8535 326.3432 14.23285612 32304
HUBBLE
1 20580U 90037B   03037.69930556  .00000251  00000-0  73634-5 0  3192
2 20580  28.4678 115.1810 0004480 141.2035 325.7608 14.97760098500851
UARS
1 21701U 91063B   03037.78906169  .00000750  00000-0  74440-4 0  8184
2 21701  56.9813  79.7308 0005007 115.1003 245.0548 15.02831643623947
PO-34
1 25520U 98064B   03035.97864957  .00002906  00000-0  14649-3 0 06369
2 25520 028.4590 314.3667 0005515 201.0861 158.9512 15.13808697235524
ISS
1 25544U 98067A   03037.85978726  .00025552  00000-0  31035-3 0  6615
2 25544  51.6378 314.8138 0005737 119.2519 351.0130 15.60399612240674
WO-39
1 26061U 00004A   03037.19247625  .00000525  00000-0  19256-3 0  7589
2 26061 100.2096  91.9641 0034911 314.9951  44.8402 14.37809116158753
OO-38
1 26063U 00004C   03037.70608802  .00000172  00000-0  79734-4 0  7155
2 26063 100.2146  90.1333 0037196 320.7642  39.0842 14.35476126158685
SO-43
1 26929U 01043A   03021.14417834  .23075867  62110-5  22771-3 0  7155
2 26929  67.0082  58.0340 0002739 336.9161  23.5083 16.51128562 74338
NO-45
1 26932U 01043D   03036.90765340  .00000105  00000-0  73817-4 0  3895
2 26932  67.0560 287.9182 0005400 239.4562 120.6005 14.29289224 70560


Read previous mail | Read next mail


 13.06.2026 14:12:36lGo back Go up